Shawbury, United Kingdom

1:24 AM BST on July 30, 2016 (GMT +0100)
Shawbury Air Base

Weather History for EGOS - March, 2013

Change the Weather History Date:

Tuesday, March 5, 2013

  Actual Average Record
Temperature  
Mean Temperature 39 °F -  
Max Temperature 54 °F 48 °F 54 °F (2013)
Min Temperature 24 °F 36 °F 19 °F (2001)
Degree Days  
Heating Degree Days 26    
Moisture  
Dew Point 35 °F    
Average Humidity 84    
Maximum Humidity 100    
Minimum Humidity 52    
Precipitation  
Precipitation 0.00 in - - ()
Sea Level Pressure  
Sea Level Pressure 29.64 in    
Wind  
Wind Speed 3 mph ()    
Max Wind Speed 8 mph    
Max Gust Speed -    
Visibility 1.8 miles    
Events Fog    
Averages and records for this station are not official NWS values.
T = Trace of Precipitation, MM = Missing Value Source: Averaged Metar Reports

Daily Weather History Graph

Daily Weather History Graph

Search for Another Location

Airport or City:

Trip Planner

Search our weather history database for the weather conditions in past years. The results will help you decide how hot, cold, wet, or windy it might be!

Date:

Astronomy

Mar. 05, 2013 Rise Set
Actual Time 6:48 AM GMT 5:56 PM GMT
Civil Twilight 6:13 AM GMT 6:31 PM GMT
Nautical Twilight 5:34 AM GMT 7:11 PM GMT
Astronomical Twilight 4:53 AM GMT 7:51 PM GMT
Moon 2:21 AM GMT (3/5) 10:45 AM GMT (3/5)
Length of Visible Light 12h 17m
Length of Day
11h 08m
Last Quarter, 43% of the Moon is Illuminated
Mar 5
Last Quarter
Mar 11
New
Mar 19
First Quarter
Mar 27
Full
Apr 3
Last Quarter

Hourly Weather History & Observations

Time (GMT) Temp. Windchill Dew Point Humidity Pressure Visibility Wind Dir Wind Speed Gust Speed Precip Events Conditions
12:50 AM 32.0 °F - 32.0 °F 100% 29.71 in 1.6 mi NE 2.3 mph - N/A   Haze
1:50 AM 32.0 °F - 32.0 °F 100% 29.71 in 1.6 mi ENE 2.3 mph - N/A   Mist
2:50 AM 27 °F - 27 °F 100% 29.73 in 1 mi NNE 1.2 mph - - Fog Fog
2:50 AM 26.6 °F - 26.6 °F 100% 29.71 in 1.1 mi NNE 1.2 mph - N/A   Unknown
3:50 AM 28.4 °F - 28.4 °F 100% 29.68 in 1.6 mi NE 2.3 mph - N/A   Mist
4:50 AM 30.2 °F 26.7 °F 30.2 °F 100% 29.68 in 1.3 mi ENE 3.5 mph - N/A   Unknown
5:50 AM 28 °F - 28 °F 99% 29.70 in 0 mi North 1.2 mph - - Fog Fog
5:50 AM 28.4 °F - 28.4 °F 100% 29.68 in 0.3 mi North 1.2 mph - N/A Fog Fog
6:50 AM 24.8 °F - 23.0 °F 93% 29.68 in 0.6 mi NNE 1.2 mph - N/A Fog Patches of Fog
7:50 AM 26.6 °F - 24.8 °F 93% 29.68 in 0.6 mi NNE 1.2 mph - N/A Fog Fog
8:50 AM 32 °F - 30 °F 91% 29.70 in 1 mi SSE 1.2 mph - -   Mist
8:50 AM 32.0 °F - 30.2 °F 93% 29.68 in 1.0 mi SSE 1.2 mph - N/A   Clear
9:50 AM 35.6 °F - 32.0 °F 87% 29.68 in 1.4 mi East 2.3 mph - N/A   Haze
10:07 AM 35.6 °F 32.8 °F 33.8 °F 93% 29.65 in 1.6 mi East 3.5 mph - N/A   Haze
10:50 AM 39.2 °F 35.9 °F 33.8 °F 81% 29.65 in 2.2 mi ESE 4.6 mph - N/A   Haze
11:27 AM 41.0 °F - 35.6 °F 81% 29.65 in - SSE 2.3 mph - N/A   Haze
11:50 AM 43 °F - 36 °F 67% 29.67 in 3 mi SE 3.5 mph - -   Haze
11:50 AM 42.8 °F 41.1 °F 35.6 °F 76% 29.65 in 2.8 mi SE 3.5 mph - N/A   Haze
12:50 PM 46.4 °F - 37.4 °F 71% 29.62 in 2.8 mi ESE 2.3 mph - N/A   Haze
1:50 PM 50.0 °F - 39.2 °F 66% 29.59 in - SSE 5.8 mph - N/A   Haze
2:11 PM 50.0 °F - 39.2 °F 66% 29.59 in 3.1 mi South 5.8 mph - N/A   Haze
2:50 PM 53 °F - 40 °F 52% 29.60 in 3 mi ESE 4.6 mph - -   Haze
2:50 PM 51.8 °F - 41.0 °F 67% 29.59 in 3.1 mi ESE 4.6 mph - N/A   Haze
3:50 PM 53.6 °F - 41.0 °F 62% 29.56 in 3.1 mi East 3.5 mph - N/A   Haze
4:50 PM 53.6 °F - 41.0 °F 62% 29.56 in 3.1 mi East 6.9 mph - N/A   Haze
5:50 PM 49 °F - 41 °F 66% 29.59 in 2 mi East 5.8 mph - -   Light Haze
5:50 PM 50.0 °F - 41.0 °F 71% 29.56 in 2.5 mi East 5.8 mph - N/A   Haze
6:50 PM 46.4 °F 44.3 °F 41.0 °F 81% 29.59 in 2.2 mi ENE 4.6 mph - N/A   Haze
7:50 PM 42.8 °F 39.3 °F 39.2 °F 87% 29.59 in 1.9 mi ENE 5.8 mph - N/A   Haze
8:50 PM 42 °F - 38 °F 82% 29.62 in 2 mi East 8.1 mph - -   Light Haze
8:50 PM 42.8 °F 38.0 °F 39.2 °F 87% 29.59 in - East 8.1 mph - N/A   Haze
9:50 PM 41.0 °F 37.1 °F 37.4 °F 87% 29.59 in 1.7 mi East 5.8 mph - N/A   Haze
10:50 PM 39.2 °F 34.2 °F 37.4 °F 93% 29.59 in 1.6 mi East 6.9 mph - N/A   Haze
11:50 PM 39 °F - 37 °F 90% 29.60 in 1 mi East 6.9 mph - -   Mist
11:50 PM 39.2 °F 34.2 °F 37.4 °F 93% 29.59 in 1.4 mi East 6.9 mph - N/A   Haze